LSGGLIMF

Guest
Details From LSGG - Geneva
To LIMF - Torino Caselle
Flight Number -
Tags generated
Created
Modified
Stats Distance 90 nm / 166 km
Max Altitude 7,100 ft / 2,164 m
Waypoints 3
Social Downloads 11
Likes 0
Share VATSIM

Download

Looking for another format? Having issues loading an existing format? Contact us
Advertisement - Login to hide

Notes

Basic altitude profile: - Ascent Rate: 2500ft/min - Ascent Speed: 250kts - Cruise Altitude: 35000ft - Cruise Speed: 420kts - Descent Rate: 1500ft/min - Descent Speed: 250kts Options: - Use NATs: yes - Use PACOTS: yes - Use low airways: yes - Use high airways: yes

Route

LSGG PAS21 LIMF

ID Type Via Altitude Latitude Longitude Leg Dist Tot Dist Heading (true) Name
O LSGG APT - 0 ft / 0 m 46.23775˚ 6.10617˚ - 0 nm - Geneva
PAS21 FIX - 7,100 ft / 2,164 m 46.00864˚ 6.45197˚ 19 nm 19 nm 134° / 134° -
O LIMF APT - 0 ft / 0 m 45.20076˚ 7.64963˚ 69 nm 89 nm 134° / 134° Torino Caselle

Altitude Profile

Advertisement - Login to hide

LSGG

Details ICAO LSGG (GVA)
Name Geneva
Region Switzerland
Timezone Europe/Zurich (UTC+2.0)
Stats Elevation 1,410 ft / 430 m (AMSL)
Location 46.237755° 6.106173°
Runways 2
Magnetic Variation 1.790° E

METAR

LSGG 240020Z AUTO 27003KT 9999 NCD 11/11 Q1019 NOSIG

Decode

TAF

TAF LSGG 232325Z 2400/2506 VRB03KT CAVOK TX25/2415Z TN11/2405Z TN13/2505Z PROB30 TEMPO 2404/2407 1500 BCFG BECMG 2413/2416 9999 FEW080

Decode

Departure Runways

ID Width Length Bearing (true) Bearing (mag) Surface Threshold Offset Overrun Length
05 180 ft / 55 m 12,796 ft / 3,900 m 45.43° 43.64° Concrete 1,079 ft / 329 m 66 ft / 20 m
05L 98 ft / 30 m 2,701 ft / 823 m 45.44° 43.65° Grass 610 ft / 186 m 0 ft / 0 m
23 180 ft / 55 m 12,796 ft / 3,900 m 225.45° 223.66° Concrete 0 ft / 0 m 66 ft / 20 m
23R 98 ft / 30 m 2,701 ft / 823 m 225.45° 223.66° Grass 997 ft / 304 m 0 ft / 0 m

LIMF

Details ICAO LIMF (TRN)
Name Torino Caselle
Region Italy
Timezone Europe/Rome (UTC+2.0)
Stats Elevation 989 ft / 301 m (AMSL)
Location 45.200763° 7.649630°
Runways 1
Magnetic Variation 2.173° E

METAR

LIMF 232350Z 27003KT 9999 FEW090 16/12 Q1018

Decode

TAF

TAF LIMF 232300Z 2400/2424 VRB05KT 9999 SCT070

Decode

Destination Runways

ID Width Length Bearing (true) Bearing (mag) Surface Threshold Offset Overrun Length
18 197 ft / 60 m 10,835 ft / 3,303 m 182.56° 180.39° Asphalt 2,378 ft / 725 m 970 ft / 296 m
36 197 ft / 60 m 10,835 ft / 3,303 m 2.56° 0.39° Asphalt 1,148 ft / 350 m 0 ft / 0 m

Approach Navaids

Runway Type Ident Frequency Range Bearing (true) Bearing (mag) Slope Elevation
36 Localiser ITOC 108.70 MHz 18 nm / 33 km 2.56° 0.39° - 989 ft / 301 m (AMSL)
36 Glidescope ITOC 108.70 MHz 10 nm / 19 km 2.56° 0.39° 3.00° 989 ft / 301 m (AMSL)
36 DME ITOC 108.70 MHz 25 nm / 46 km - - - 989 ft / 301 m (AMSL)

Popular Alternatives